RYR9PX LEZL-LPPT

Flight info

Callsign RYR9PX
Flight time 0h 48m
Altitude 35000
Route ONUBA DCT NAPES DCT OSLEP DCT MINTA/N0463F340 DCT VATZI
Aircraft B738/M-SDE2E3FGHIRWXY/LB1

Departure

Time 2026-04-15 14:25
Airport Seville Airport (LEZL)

Arrival

Time 2026-04-15 15:13
Airport Lisbon Humberto Delgado Airport (LPPT)
Time Latitude Longitude Altitude Speed Heading
2026-04-15 13:59 37.42183 -5.89980 95 ft 0 kts 314°
2026-04-15 14:17 37.42166 -5.89958 93 ft 4 kts 319°
2026-04-15 14:17 37.42144 -5.89940 93 ft 4 kts 329°
2026-04-15 14:18 37.42133 -5.89925 92 ft 4 kts 242°
2026-04-15 14:18 37.42146 -5.89906 93 ft 4 kts 225°
2026-04-15 14:18 37.42155 -5.89894 93 ft 1 kts 225°
2026-04-15 14:20 37.42154 -5.89895 93 ft 0 kts 225°
2026-04-15 14:20 37.42149 -5.89901 93 ft 2 kts 225°
2026-04-15 14:20 37.42135 -5.89919 91 ft 4 kts 225°
2026-04-15 14:21 37.42113 -5.89947 93 ft 5 kts 225°
2026-04-15 14:21 37.42082 -5.89986 93 ft 7 kts 225°
2026-04-15 14:21 37.42056 -5.90049 95 ft 10 kts 263°
2026-04-15 14:21 37.42051 -5.90150 93 ft 13 kts 271°
2026-04-15 14:22 37.42044 -5.90273 93 ft 16 kts 241°
2026-04-15 14:22 37.41979 -5.90354 93 ft 14 kts 268°
2026-04-15 14:22 37.41979 -5.90494 93 ft 18 kts 269°
2026-04-15 14:22 37.41977 -5.90662 92 ft 21 kts 269°
2026-04-15 14:23 37.41977 -5.90856 90 ft 24 kts 269°
2026-04-15 14:23 37.41918 -5.91055 90 ft 26 kts 238°
2026-04-15 14:23 37.41813 -5.91178 88 ft 17 kts 150°
2026-04-15 14:23 37.41789 -5.91002 91 ft 35 kts 90°
2026-04-15 14:24 37.41790 -5.90684 93 ft 76 kts 90°
2026-04-15 14:24 37.41794 -5.89781 97 ft 129 kts 90°
2026-04-15 14:24 37.41800 -5.88479 163 ft 163 kts 90°
2026-04-15 14:24 37.41785 -5.87000 567 ft 174 kts 91°
2026-04-15 14:25 37.41753 -5.85432 1014 ft 178 kts 91°
2026-04-15 14:25 37.41668 -5.83928 1608 ft 180 kts 102°
2026-04-15 14:25 37.41112 -5.82401 1845 ft 206 kts 128°
2026-04-15 14:25 37.39958 -5.81268 2235 ft 217 kts 158°
2026-04-15 14:26 37.38461 -5.81056 2734 ft 221 kts 192°
2026-04-15 14:26 37.37110 -5.81946 3342 ft 223 kts 224°
2026-04-15 14:26 37.36057 -5.83378 4089 ft 222 kts 229°
2026-04-15 14:26 37.35023 -5.84841 4767 ft 225 kts 228°
2026-04-15 14:27 37.33963 -5.86313 5418 ft 228 kts 228°
2026-04-15 14:27 37.32876 -5.87796 6049 ft 233 kts 227°
2026-04-15 14:27 37.31770 -5.89282 6705 ft 238 kts 227°
2026-04-15 14:27 37.30629 -5.90798 7159 ft 241 kts 227°
2026-04-15 14:28 37.29462 -5.92333 7586 ft 244 kts 227°
2026-04-15 14:28 37.28284 -5.93873 8315 ft 245 kts 227°
2026-04-15 14:28 37.27097 -5.95420 9040 ft 247 kts 227°
2026-04-15 14:28 37.25894 -5.96985 9721 ft 250 kts 227°
2026-04-15 14:29 37.24683 -5.98576 10374 ft 255 kts 230°
2026-04-15 14:29 37.23649 -6.00478 10662 ft 275 kts 246°
2026-04-15 14:29 37.23030 -6.02853 10858 ft 297 kts 263°
2026-04-15 14:29 37.22981 -6.05534 11045 ft 319 kts 279°
2026-04-15 14:30 37.23400 -6.08319 11206 ft 340 kts 284°
2026-04-15 14:30 37.23948 -6.11307 11423 ft 359 kts 284°
2026-04-15 14:30 37.24524 -6.14405 11926 ft 368 kts 284°
2026-04-15 14:30 37.25091 -6.17543 12629 ft 370 kts 284°
2026-04-15 14:31 37.25646 -6.20699 13377 ft 371 kts 283°
2026-04-15 14:31 37.26193 -6.23878 14096 ft 374 kts 283°
2026-04-15 14:31 37.26738 -6.27091 14737 ft 378 kts 283°
2026-04-15 14:31 37.27285 -6.30339 15352 ft 382 kts 283°
2026-04-15 14:32 37.27836 -6.33624 15981 ft 386 kts 283°
2026-04-15 14:32 37.28384 -6.36892 16602 ft 390 kts 283°
2026-04-15 14:32 37.28945 -6.40244 17222 ft 394 kts 283°
2026-04-15 14:32 37.29507 -6.43630 17821 ft 398 kts 282°
2026-04-15 14:33 37.29631 -6.47127 18357 ft 407 kts 263°
2026-04-15 14:33 37.29039 -6.50618 18930 ft 410 kts 258°
2026-04-15 14:33 37.28409 -6.54122 19515 ft 411 kts 259°
2026-04-15 14:33 37.27795 -6.57638 20122 ft 412 kts 259°
2026-04-15 14:34 37.27193 -6.61162 20712 ft 413 kts 259°
2026-04-15 14:34 37.26597 -6.64701 21280 ft 415 kts 259°
2026-04-15 14:34 37.26002 -6.68256 21831 ft 417 kts 259°
2026-04-15 14:34 37.25403 -6.71830 22378 ft 419 kts 259°
2026-04-15 14:35 37.24799 -6.75411 22901 ft 420 kts 259°
2026-04-15 14:35 37.24174 -6.78962 23408 ft 422 kts 258°
2026-04-15 14:35 37.23497 -6.82559 23892 ft 424 kts 257°
2026-04-15 14:35 37.22806 -6.86159 24303 ft 426 kts 257°
2026-04-15 14:36 37.22109 -6.89790 24711 ft 428 kts 257°
2026-04-15 14:36 37.21415 -6.93428 25109 ft 429 kts 257°
2026-04-15 14:36 37.20721 -6.97085 25499 ft 431 kts 257°
2026-04-15 14:36 37.20025 -7.00757 25890 ft 433 kts 257°
2026-04-15 14:37 37.19326 -7.04435 26261 ft 435 kts 257°
2026-04-15 14:37 37.18620 -7.08134 26621 ft 437 kts 257°
2026-04-15 14:37 37.17909 -7.11852 26976 ft 439 kts 257°
2026-04-15 14:37 37.17194 -7.15584 27313 ft 441 kts 257°
2026-04-15 14:38 37.16476 -7.19325 27654 ft 442 kts 257°
2026-04-15 14:38 37.15763 -7.23089 27978 ft 444 kts 257°
2026-04-15 14:38 37.15064 -7.26818 28299 ft 446 kts 257°
2026-04-15 14:38 37.14352 -7.30610 28619 ft 447 kts 257°
2026-04-15 14:39 37.13769 -7.34445 28903 ft 450 kts 264°
2026-04-15 14:39 37.13772 -7.38368 29230 ft 451 kts 274°
2026-04-15 14:39 37.14256 -7.42244 29711 ft 450 kts 282°
2026-04-15 14:39 37.15238 -7.45961 30222 ft 449 kts 290°
2026-04-15 14:40 37.16422 -7.49582 30634 ft 448 kts 290°
2026-04-15 14:40 37.17627 -7.53184 30984 ft 447 kts 290°
2026-04-15 14:40 37.18828 -7.56778 31322 ft 447 kts 290°
2026-04-15 14:40 37.20017 -7.60370 31707 ft 445 kts 290°
2026-04-15 14:41 37.21194 -7.63961 32106 ft 443 kts 290°
2026-04-15 14:41 37.22342 -7.67496 32492 ft 442 kts 289°
2026-04-15 14:41 37.23493 -7.71064 32896 ft 440 kts 289°
2026-04-15 14:41 37.24636 -7.74618 33272 ft 438 kts 289°
2026-04-15 14:42 37.25774 -7.78169 33615 ft 438 kts 289°
2026-04-15 14:42 37.26910 -7.81716 33939 ft 437 kts 289°
2026-04-15 14:42 37.28043 -7.85260 34260 ft 437 kts 289°
2026-04-15 14:42 37.29171 -7.88789 34566 ft 435 kts 289°
2026-04-15 14:43 37.30298 -7.92317 34899 ft 433 kts 289°
2026-04-15 14:43 37.31415 -7.95821 35201 ft 432 kts 289°
2026-04-15 14:43 37.32537 -7.99342 35212 ft 436 kts 289°
2026-04-15 14:44 37.34760 -8.06327 35207 ft 417 kts 289°
2026-04-15 14:44 37.35817 -8.09647 35219 ft 401 kts 288°
2026-04-15 14:44 37.36823 -8.12809 35213 ft 388 kts 288°
2026-04-15 14:44 37.37804 -8.15903 35212 ft 374 kts 288°
2026-04-15 14:45 37.38751 -8.18894 35219 ft 361 kts 288°
2026-04-15 14:45 37.39752 -8.22059 35215 ft 348 kts 288°
2026-04-15 14:45 37.40628 -8.24833 35220 ft 335 kts 288°
2026-04-15 14:46 37.41481 -8.27542 35237 ft 333 kts 288°
2026-04-15 14:46 37.42621 -8.31182 35272 ft 343 kts 288°
2026-04-15 14:47 37.44270 -8.36449 35267 ft 356 kts 288°
2026-04-15 14:47 37.45678 -8.40933 35250 ft 356 kts 288°
2026-04-15 14:48 37.47473 -8.46645 35239 ft 346 kts 288°
2026-04-15 14:48 37.49241 -8.52300 35266 ft 348 kts 288°
2026-04-15 14:49 37.50295 -8.55673 35138 ft 342 kts 288°
2026-04-15 14:49 37.50761 -8.57164 34951 ft 340 kts 287°
2026-04-15 14:49 37.51627 -8.59944 34505 ft 342 kts 288°
2026-04-15 14:49 37.52500 -8.62749 33998 ft 345 kts 288°
2026-04-15 14:50 37.52712 -8.63432 33889 ft 345 kts 288°
2026-04-15 14:50 37.53235 -8.65114 33669 ft 344 kts 288°
2026-04-15 14:51 37.53362 -8.65522 33624 ft 344 kts 288°
2026-04-15 14:51 37.54230 -8.68312 33318 ft 340 kts 288°
2026-04-15 14:51 37.55088 -8.71075 33010 ft 337 kts 288°
2026-04-15 14:51 37.55941 -8.73822 32661 ft 336 kts 288°
2026-04-15 14:52 37.56790 -8.76562 32294 ft 335 kts 288°
2026-04-15 14:52 37.57636 -8.79294 31963 ft 333 kts 288°
2026-04-15 14:52 37.58477 -8.82010 31655 ft 331 kts 288°
2026-04-15 14:52 37.59535 -8.84585 31291 ft 336 kts 306°
2026-04-15 14:53 37.61257 -8.86598 30956 ft 342 kts 322°
2026-04-15 14:53 37.63421 -8.87892 30660 ft 347 kts 335°
2026-04-15 14:53 37.65716 -8.88854 30365 ft 346 kts 337°
2026-04-15 14:53 37.68013 -8.89752 30001 ft 345 kts 337°
2026-04-15 14:54 37.70271 -8.90628 29649 ft 343 kts 337°
2026-04-15 14:54 37.72543 -8.91519 29290 ft 340 kts 337°
2026-04-15 14:54 37.74798 -8.92416 28941 ft 338 kts 337°
2026-04-15 14:54 37.77035 -8.93316 28591 ft 336 kts 337°
2026-04-15 14:55 37.79257 -8.94216 28256 ft 334 kts 337°
2026-04-15 14:55 37.81461 -8.95112 27921 ft 332 kts 337°
2026-04-15 14:55 37.83654 -8.96007 27599 ft 330 kts 337°
2026-04-15 14:55 37.85830 -8.96896 27279 ft 328 kts 337°
2026-04-15 14:56 37.87990 -8.97779 26977 ft 325 kts 337°
2026-04-15 14:56 37.90135 -8.98656 26664 ft 323 kts 337°
2026-04-15 14:56 37.92266 -8.99529 26340 ft 321 kts 337°
2026-04-15 14:56 37.94394 -9.00401 26029 ft 320 kts 337°
2026-04-15 14:57 37.96504 -9.01266 25721 ft 318 kts 337°
2026-04-15 14:57 37.98604 -9.02127 25418 ft 316 kts 337°
2026-04-15 14:57 38.00664 -9.02975 25113 ft 314 kts 337°
2026-04-15 14:57 38.02735 -9.03845 24829 ft 313 kts 337°
2026-04-15 14:58 38.04794 -9.04717 24539 ft 310 kts 337°
2026-04-15 14:58 38.06827 -9.05578 24164 ft 306 kts 337°
2026-04-15 14:58 38.08848 -9.06434 23670 ft 306 kts 337°
2026-04-15 14:58 38.10860 -9.07286 23145 ft 304 kts 337°
2026-04-15 14:59 38.12862 -9.08132 22659 ft 302 kts 338°
2026-04-15 14:59 38.14851 -9.08969 22188 ft 300 kts 340°
2026-04-15 14:59 38.16937 -9.09238 21666 ft 308 kts
2026-04-15 14:59 38.18962 -9.08317 21183 ft 313 kts 30°
2026-04-15 15:00 38.20601 -9.06499 20752 ft 314 kts 45°
2026-04-15 15:00 38.22028 -9.04410 20327 ft 312 kts 47°
2026-04-15 15:00 38.23425 -9.02304 19893 ft 310 kts 47°
2026-04-15 15:00 38.24822 -9.00224 19477 ft 308 kts 47°
2026-04-15 15:01 38.26218 -8.98176 19079 ft 305 kts 47°
2026-04-15 15:01 38.27609 -8.96149 18684 ft 303 kts 47°
2026-04-15 15:01 38.28997 -8.94141 18233 ft 300 kts 44°
2026-04-15 15:01 38.30680 -8.92619 17571 ft 298 kts 17°
2026-04-15 15:02 38.32696 -8.92237 17002 ft 293 kts 352°
2026-04-15 15:02 38.34634 -8.92922 16408 ft 289 kts 330°
2026-04-15 15:02 38.36256 -8.94406 15854 ft 288 kts 315°
2026-04-15 15:02 38.37711 -8.96205 15282 ft 295 kts 310°
2026-04-15 15:03 38.38742 -8.98437 14713 ft 301 kts 285°
2026-04-15 15:03 38.38937 -9.01099 14172 ft 307 kts 264°
2026-04-15 15:03 38.38309 -9.03721 13564 ft 315 kts 243°
2026-04-15 15:03 38.37123 -9.06097 12963 ft 320 kts 237°
2026-04-15 15:04 38.35855 -9.08458 12373 ft 325 kts 237°
2026-04-15 15:04 38.34663 -9.10911 11777 ft 327 kts 248°
2026-04-15 15:04 38.34098 -9.13725 11107 ft 331 kts 261°
2026-04-15 15:04 38.33703 -9.16639 10396 ft 337 kts 260°
2026-04-15 15:05 38.33365 -9.19610 9616 ft 342 kts 269°
2026-04-15 15:05 38.33893 -9.22552 8845 ft 347 kts 297°
2026-04-15 15:05 38.35396 -9.24953 8121 ft 351 kts 318°
2026-04-15 15:05 38.37489 -9.26584 7397 ft 356 kts 336°
2026-04-15 15:06 38.42398 -9.27137 5935 ft 359 kts
2026-04-15 15:06 38.44784 -9.26647 5549 ft 338 kts
2026-04-15 15:06 38.47031 -9.26151 5296 ft 316 kts
2026-04-15 15:07 38.49136 -9.25698 5108 ft 297 kts
2026-04-15 15:07 38.51110 -9.25289 4928 ft 279 kts
2026-04-15 15:07 38.52979 -9.24914 4764 ft 263 kts
2026-04-15 15:07 38.54741 -9.24566 4549 ft 252 kts
2026-04-15 15:08 38.56457 -9.24229 4241 ft 245 kts
2026-04-15 15:08 38.58102 -9.23906 4062 ft 233 kts
2026-04-15 15:08 38.59634 -9.23421 3923 ft 221 kts 18°
2026-04-15 15:08 38.61054 -9.22743 3678 ft 216 kts 20°
2026-04-15 15:09 38.62413 -9.22030 3404 ft 212 kts 21°
2026-04-15 15:09 38.63764 -9.21305 3105 ft 210 kts 21°
2026-04-15 15:09 38.65092 -9.20589 2839 ft 204 kts 20°
2026-04-15 15:09 38.66378 -9.19901 2562 ft 195 kts 21°
2026-04-15 15:10 38.67604 -9.19242 2328 ft 187 kts 20°
2026-04-15 15:10 38.68778 -9.18612 2038 ft 177 kts 20°
2026-04-15 15:10 38.69870 -9.18026 1814 ft 164 kts 19°
2026-04-15 15:10 38.70897 -9.17475 1587 ft 157 kts 20°
2026-04-15 15:11 38.71868 -9.16948 1417 ft 144 kts 19°
2026-04-15 15:11 38.72740 -9.16444 1187 ft 137 kts 18°
2026-04-15 15:11 38.73342 -9.16113 1033 ft 143 kts 19°
2026-04-15 15:11 38.74575 -9.15485 934 ft 143 kts 17°
2026-04-15 15:12 38.75527 -9.14978 682 ft 157 kts 18°
2026-04-15 15:12 38.76525 -9.14465 421 ft 152 kts 20°
2026-04-15 15:12 38.77444 -9.13964 362 ft 129 kts 22°
2026-04-15 15:12 38.77911 -9.13714 366 ft 86 kts 22°
2026-04-15 15:13 38.78301 -9.13455 363 ft 49 kts 44°
2026-04-15 15:13 38.78346 -9.13280 367 ft 14 kts 154°
2026-04-15 15:13 38.78252 -9.13301 359 ft 14 kts 201°
2026-04-15 15:13 38.78164 -9.13346 361 ft 13 kts 202°
2026-04-15 15:14 38.78077 -9.13392 357 ft 14 kts 204°
2026-04-15 15:14 38.77973 -9.13447 363 ft 18 kts 202°
2026-04-15 15:14 38.77844 -9.13519 359 ft 22 kts 204°
2026-04-15 15:14 38.77693 -9.13595 356 ft 24 kts 195°
2026-04-15 15:15 38.77545 -9.13682 360 ft 23 kts 201°